AKST,Max TemperatureF,Mean TemperatureF,Min TemperatureF,Max Dew PointF,MeanDew PointF,Min DewpointF,Max Humidity, Mean Humidity, Min Humidity, Max Sea Level PressureIn, Mean Sea Level PressureIn, Min Sea Level PressureIn, Max VisibilityMiles, Mean VisibilityMiles, Min VisibilityMiles, Max Wind SpeedMPH, Mean Wind SpeedMPH, Max Gust SpeedMPH,PrecipitationIn, CloudCover, Events, WindDirDegrees
2013-2-1,46,45,44,45,43,42,0,0,0,30.23,30.21,30.19,10,6,1,22,14,32,0.55,8,Rain,141
2013-2-2,46,43,40,45,43,39,0,0,0,30.19,30.07,30.03,10,8,2,23,10,35,0.54,8,Rain,155
2013-2-3,45,39,33,43,39,33,0,0,0,30.04,29.90,29.81,10,8,2,20,6,32,0.91,7,Rain,169
2013-2-4,42,37,32,36,33,28,0,0,0,29.97,29.77,29.44,10,10,9,10,3,14,T,7,Rain,75
2013-2-5,45,43,40,38,36,34,0,0,0,29.45,29.40,29.32,10,10,4,18,9,30,0.11,8,Rain,98
2013-2-6,44,41,37,38,35,32,0,0,0,29.74,29.61,29.46,10,10,7,14,6,20,0.11,6,Rain,105
2013-2-7,41,36,31,37,35,30,0,0,0,30.09,29.96,29.74,10,10,6,8,4,12,0.00,6,Rain,137
2013-2-8,45,43,40,43,40,36,0,0,0,30.18,30.05,29.99,10,8,2,17,8,30,0.79,8,Rain,160
2013-2-9,45,42,39,45,42,39,0,0,0,30.29,30.25,30.18,10,7,2,12,4,15,0.05,8,Rain,135
2013-2-10,46,45,43,45,41,37,0,0,0,30.26,30.17,30.12,10,8,2,17,8,25,0.39,8,Rain,176
2013-2-11,43,42,40,39,38,37,0,0,0,30.13,30.04,29.80,10,9,6,14,8,25,0.23,8,Rain,179
2013-2-12,44,42,39,43,38,27,0,0,0,30.22,29.78,29.60,10,8,4,17,10,29,0.72,7,Rain,249
2013-2-13,41,37,32,37,34,31,0,0,0,30.33,30.28,30.23,10,10,6,18,6,24,0.01,7,Rain,117
2013-2-14,47,43,38,45,41,36,0,0,0,30.23,30.19,30.12,10,5,1,21,14,31,0.73,8,Rain,133
2013-2-15,47,46,45,45,43,39,0,0,0,30.15,30.00,29.95,10,6,2,24,13,40,0.86,8,Rain,163
2013-2-16,47,41,34,39,35,33,0,0,0,30.23,30.11,29.97,10,10,8,9,4,13,0.01,5,Rain,313
2013-2-17,40,38,35,37,34,30,0,0,0,30.22,30.02,29.82,10,9,6,18,7,24,0.03,8,Rain,136
2013-2-18,42,39,36,37,35,33,0,0,0,29.85,29.76,29.71,10,9,6,18,8,23,0.67,8,Rain,117
2013-2-19,42,38,33,38,36,33,0,0,0,29.95,29.87,29.74,10,10,5,12,3,13,0.01,8,Rain,134
2013-2-20,45,42,38,38,36,33,0,0,0,29.73,29.62,29.40,10,9,6,22,13,33,0.28,8,Rain,160
2013-2-21,42,39,35,39,36,33,0,0,0,29.57,29.45,29.14,10,9,2,23,11,37,0.36,8,Rain,172
2013-2-22,45,42,38,42,37,27,0,0,0,29.71,29.18,28.98,10,9,2,20,11,30,0.28,8,Rain,236
2013-2-23,40,36,31,40,34,26,0,0,0,29.97,29.88,29.74,10,8,3,20,9,30,0.14,7,Rain,155
2013-2-24,44,39,33,40,35,30,0,0,0,29.87,29.83,29.73,10,10,10,8,2,12,T,4,,308
2013-2-25,42,36,29,36,33,29,0,0,0,30.03,29.96,29.85,10,10,9,10,6,14,0.00,6,Rain,117
2013-2-26,41,39,37,37,36,32,0,0,0,29.88,29.75,29.66,10,9,2,25,16,40,0.32,8,Rain,139
2013-2-27,44,40,36,40,36,34,0,0,0,29.93,29.80,29.71,10,8,2,30,14,45,0.57,7,Rain-Snow,156
2013-2-28,45,42,38,41,37,35,0,0,0,29.99,29.78,29.57,10,9,4,28,13,39,0.56,7,Rain,133